Theta_e
359 359 359 360 360 359 358 356 354 356 356 356 356 356 356 355 354 355 354 354 356 358 358 359 362 362 360 359 360 359 357 357 356 355 355 356 356 356 356 356 357 356
359 359 358 359 359 359 359 357 355 356 357 356 356 356 355 356 356 355 354 354 355 357 358 360 363 363 360 360 361 360 359 358 357 356 355 355 356 355 355 356 356 356
358 358 358 358 358 358 358 357 355 355 355 355 355 355 355 355 355 356 355 354 354 355 357 359 362 362 360 359 361 361 359 359 359 356 356 356 355 355 354 355 355 356
357 357 358 358 358 357 355 355 356 355 354 354 354 355 354 354 354 355 356 356 355 354 355 358 360 360 358 358 361 361 359 360 360 358 357 356 356 355 354 354 354 355
357 357 357 357 356 355 353 355 356 355 355 355 354 353 354 355 355 354 355 356 357 355 354 357 359 358 358 359 362 361 358 359 361 360 359 358 357 356 355 354 354 355
357 357 356 355 355 353 353 355 355 355 354 353 353 353 354 355 355 355 355 356 356 355 353 355 357 357 357 359 362 361 358 358 359 361 361 359 358 357 355 354 355 356
357 358 356 355 354 353 354 354 353 355 354 352 353 355 355 355 354 356 356 355 355 356 353 353 356 357 357 358 362 361 359 358 359 361 362 360 359 358 356 355 355 357
359 359 357 355 355 353 353 354 353 354 354 354 356 355 354 354 354 355 356 355 356 356 354 353 354 358 358 357 360 362 360 358 358 361 363 362 360 359 358 357 357 359
359 361 358 355 354 353 352 353 354 354 354 356 358 356 353 355 355 354 355 355 356 356 356 355 354 358 361 358 358 361 360 359 358 359 363 364 362 361 360 359 359 361
360 361 359 355 354 354 353 353 353 355 355 356 358 357 355 356 357 355 355 355 356 357 358 358 356 359 362 360 359 362 361 359 359 359 362 364 364 363 362 362 362 362
359 361 359 357 356 355 355 355 355 356 357 357 358 358 357 359 359 357 355 355 356 359 360 360 359 360 362 361 361 362 361 359 359 361 362 364 365 364 363 363 362 361
359 359 360 359 358 357 356 357 356 357 359 358 357 358 359 360 360 358 356 355 357 360 361 362 362 360 361 362 361 362 361 360 360 363 364 365 365 364 362 361 357 356
358 357 360 360 359 358 357 358 358 357 359 358 357 358 359 360 361 360 359 357 357 359 361 362 363 361 361 362 363 363 363 362 361 364 365 364 363 362 360 358 356 356
357 357 361 362 361 360 359 361 360 357 357 357 355 357 359 359 360 360 360 359 357 359 361 362 361 361 361 362 364 364 364 364 364 364 363 361 359 359 359 358 357 357
357 358 358 358 358 360 360 361 360 358 357 357 356 357 358 358 359 359 359 359 358 358 360 360 360 359 358 358 362 365 365 365 364 362 359 356 355 356 356 357 357 357
356 358 357 355 355 358 359 360 360 359 358 357 357 357 358 358 359 359 360 359 359 359 359 359 359 359 357 355 358 363 364 363 361 358 354 352 354 355 355 355 356 356
355 356 358 356 355 357 358 359 359 359 358 357 357 357 358 359 359 360 362 360 360 361 359 358 359 358 357 356 357 360 362 360 358 355 352 353 355 355 354 354 355 355
354 356 358 357 357 357 358 358 358 358 358 358 358 358 358 359 359 361 363 361 360 360 359 358 358 357 356 357 358 360 360 359 358 356 352 352 354 355 355 354 355 356
354 355 357 357 357 357 358 358 358 357 358 358 358 359 358 358 359 362 363 361 360 359 359 358 357 357 357 357 358 358 356 356 358 356 351 351 355 356 355 355 355 355
354 355 356 356 358 358 358 359 357 355 356 358 359 359 358 358 359 361 361 360 359 358 359 359 358 358 358 357 357 355 352 354 356 354 352 353 355 355 355 355 355 353
354 355 355 356 357 356 356 358 356 353 354 358 360 360 358 357 357 359 359 358 357 356 358 359 358 358 358 356 354 352 350 352 355 354 353 355 355 355 355 354 352 351
353 354 355 356 357 356 355 354 354 354 353 355 358 360 358 358 358 358 358 357 356 355 356 358 357 357 357 355 352 350 350 353 354 353 353 354 354 354 353 351 350 350
353 354 355 355 356 357 357 354 353 353 352 352 355 359 359 358 357 358 357 356 356 355 355 357 357 356 356 354 351 350 351 353 353 353 353 354 353 351 350 349 349 347
353 353 354 355 355 355 354 353 354 353 351 352 355 358 358 357 356 356 356 356 356 355 355 357 358 356 355 353 351 350 351 353 353 353 352 351 349 348 347 345 343 340
352 354 355 354 354 354 351 352 355 353 351 353 356 356 356 356 355 355 355 355 355 354 354 356 358 356 353 352 351 350 351 352 352 351 349 347 345 343 341 339 338 338
351 352 354 354 354 355 354 354 357 355 353 353 354 355 355 356 355 355 354 353 353 353 354 355 357 355 353 352 351 350 351 352 350 348 345 343 340 338 336 337 339 340
Wind_Speed
26 25 25 25 24 24 23 23 23 23 20 19 18 18 18 18 18 17 17 18 18 18 18 17 16 16 15 15 15 15 14 13 13 13 13 14 15 15 15 15 14 13
27 27 26 24 23 23 22 22 22 19 16 14 14 17 17 14 15 17 17 17 17 18 18 17 17 16 16 15 15 16 15 14 14 14 14 15 15 15 15 15 15 14
27 27 27 27 26 22 18 17 17 18 17 13 12 16 18 15 13 15 16 17 18 18 18 18 17 17 17 16 16 16 16 15 16 15 15 15 15 15 15 15 15 15
27 27 26 24 20 19 19 15 14 18 18 16 14 15 16 17 17 16 16 16 17 18 18 18 18 18 18 17 16 16 16 16 16 15 15 15 15 15 15 15 15 15
24 23 22 18 13 18 25 21 17 17 17 17 18 17 16 17 19 19 18 17 18 19 20 19 19 18 18 17 16 16 16 16 16 16 16 15 15 15 15 15 16 16
20 19 24 27 24 25 29 26 21 20 21 22 20 19 20 19 18 19 20 20 18 19 21 20 20 19 19 17 17 17 16 16 16 15 16 16 15 15 15 15 16 15
20 21 27 31 29 29 29 26 24 23 24 25 22 22 21 19 19 19 19 20 20 19 21 21 20 20 20 18 17 18 18 17 16 15 16 16 15 15 16 15 15 14
22 25 28 26 25 28 30 27 25 24 22 21 23 25 22 19 20 20 19 19 20 21 22 22 21 20 20 20 18 18 18 18 17 16 16 15 15 15 15 15 13 12
23 25 26 24 25 29 31 29 26 24 23 22 24 24 23 21 21 22 22 21 21 23 22 21 22 20 20 21 19 18 18 18 18 17 16 16 15 14 14 15 14 12
21 23 25 27 28 29 31 31 28 25 24 26 25 23 22 22 22 22 22 22 24 24 21 21 21 20 20 20 20 19 19 19 18 17 16 15 15 14 14 14 14 13
20 22 24 28 30 29 30 31 28 25 24 25 25 23 22 21 21 22 22 23 25 23 21 21 22 21 20 20 19 19 19 19 18 16 16 14 13 14 15 14 14 12
21 23 24 26 27 28 29 28 27 26 25 27 28 26 23 22 21 22 22 23 24 23 21 21 21 22 21 20 20 19 18 20 19 16 14 13 12 12 13 15 14 12
20 22 23 24 25 26 26 25 27 30 29 29 29 27 25 23 21 21 21 21 23 23 21 20 20 21 21 20 19 19 19 19 18 15 13 13 13 12 13 14 12 12
18 19 19 21 22 23 24 24 26 30 30 30 28 26 24 24 23 22 21 20 21 21 19 19 19 20 20 19 18 18 18 17 15 15 14 14 14 15 16 14 11 12
17 18 19 21 21 22 23 24 25 27 27 26 25 23 23 23 23 23 22 22 21 20 19 19 18 20 21 20 19 17 16 16 17 17 17 16 14 15 15 13 11 12
18 16 17 21 23 23 23 22 22 23 23 22 22 22 21 22 23 23 23 23 21 20 21 21 20 22 24 22 20 19 19 20 20 18 16 16 16 17 15 13 12 13
18 16 16 19 22 23 23 21 21 21 21 22 22 22 21 22 22 22 21 21 20 19 20 23 22 24 25 23 22 23 22 21 19 18 16 16 17 16 14 14 14 13
17 17 17 18 20 21 22 21 21 21 21 22 22 22 22 22 21 19 18 19 20 19 20 23 24 25 26 23 23 25 24 20 18 18 19 18 16 15 14 15 15 14
16 16 16 17 18 19 19 19 20 21 21 21 21 22 22 21 19 17 16 18 19 19 20 23 23 24 24 23 24 25 25 21 18 20 22 20 16 15 17 18 17 16
14 15 16 16 16 16 15 16 18 19 19 18 17 18 20 20 17 15 16 18 19 19 19 19 20 22 24 25 25 25 24 22 20 20 20 17 16 18 20 19 17 17
13 14 15 15 14 14 15 15 16 17 18 16 14 15 18 19 16 15 17 19 20 21 19 17 18 21 24 26 26 25 24 22 19 17 17 17 18 19 19 19 18 17
13 13 14 14 14 14 15 17 17 17 18 17 15 15 16 16 15 15 18 19 21 23 21 18 18 21 23 24 25 24 24 22 19 18 19 19 19 18 19 19 18 17
13 13 13 14 14 13 15 16 17 17 18 18 17 15 16 17 17 17 20 21 22 24 24 20 19 22 23 23 24 25 24 22 19 20 20 19 19 18 17 17 17 17
13 13 13 13 13 14 15 15 16 17 18 17 16 16 16 17 18 19 21 22 23 25 25 20 18 22 24 23 25 27 25 23 21 21 19 18 19 17 16 17 17 18
13 13 13 13 12 14 16 17 16 17 19 18 17 16 16 17 18 19 20 21 23 25 25 20 18 21 24 24 26 28 28 26 23 21 19 19 20 18 17 19 18 17
13 14 13 13 12 13 14 15 14 16 20 20 19 18 17 16 16 18 20 22 23 22 22 20 19 21 23 24 27 30 30 27 22 21 23 24 23 22 23 22 19 18
Wind_Direction
238 235 235 236 236 237 234 232 237 238 234 231 232 233 232 229 226 223 223 221 217 217 218 216 216 219 224 223 220 224 229 229 229 229 228 229 232 235 236 236 238 243
238 237 236 235 236 237 235 234 237 241 244 244 246 249 249 242 229 224 226 225 221 218 215 214 213 216 221 220 216 221 225 224 227 229 229 230 233 237 238 238 237 239
240 239 236 236 236 234 240 246 242 247 260 265 257 252 257 261 249 235 231 227 226 224 216 213 213 212 219 221 215 219 224 222 223 227 229 230 232 235 238 238 237 237
241 239 239 242 238 231 237 241 229 234 245 245 241 244 251 255 253 249 244 231 228 230 222 215 214 213 216 218 214 220 226 224 223 227 229 232 233 235 238 237 236 236
242 240 238 238 229 222 224 221 216 220 221 225 236 243 242 241 243 247 247 238 228 228 225 218 215 214 214 213 211 219 227 226 225 226 229 233 234 234 237 237 235 236
243 235 229 229 227 223 218 217 220 219 218 227 235 235 232 232 236 239 240 240 235 229 227 222 218 216 215 212 211 219 226 229 227 222 224 231 234 234 237 236 234 237
240 230 228 230 228 223 218 219 223 218 221 230 229 225 227 227 228 231 233 237 239 235 231 226 221 219 218 214 213 218 224 228 229 222 220 226 230 232 235 235 234 236
236 229 227 224 218 218 220 222 224 222 222 223 217 220 228 227 222 223 228 234 237 236 233 228 224 221 219 219 218 218 221 224 226 222 218 221 225 227 232 235 236 235
234 226 220 214 211 217 222 223 224 225 222 216 214 219 227 226 220 220 225 230 233 234 232 228 224 220 217 221 221 219 220 222 224 223 219 218 221 221 225 230 234 237
234 221 213 214 216 218 222 224 225 224 220 216 216 219 223 221 218 219 222 226 228 228 227 224 222 218 217 220 221 219 220 222 224 223 221 217 218 220 223 227 231 233
234 223 217 217 217 219 223 225 224 221 217 215 217 221 222 218 215 219 223 226 226 223 221 220 219 218 218 219 219 219 221 223 224 222 220 217 215 217 220 225 228 229
235 226 224 222 219 221 225 224 222 218 214 215 219 221 220 217 215 218 223 226 225 222 219 218 217 218 219 219 220 220 220 222 222 219 214 212 213 216 223 232 234 227
243 234 230 226 222 222 223 222 221 220 217 217 220 219 218 219 216 215 221 225 225 222 219 218 217 218 221 222 219 218 219 219 218 215 207 205 209 211 215 225 229 220
252 245 237 231 226 223 223 222 222 224 223 221 222 222 221 222 220 218 221 224 224 222 218 218 219 220 224 225 220 217 216 214 209 205 203 205 209 209 207 207 210 213
260 254 247 243 239 233 228 225 225 226 225 223 223 224 224 225 226 225 224 223 222 221 218 218 220 224 228 229 223 215 208 205 202 204 211 215 211 207 205 199 195 203
274 263 253 247 245 242 236 231 229 227 224 221 221 223 225 225 225 225 225 222 220 217 216 217 219 226 231 232 227 218 208 205 205 208 219 223 214 206 202 198 198 201
283 273 260 249 246 245 241 235 232 229 225 222 221 221 224 224 223 222 220 219 216 211 213 217 219 225 232 231 226 222 213 206 205 208 216 219 213 207 199 197 200 200
282 278 269 258 250 246 242 237 234 230 225 223 221 219 221 222 222 219 213 214 216 213 214 219 223 229 234 229 222 222 217 208 201 204 211 213 209 204 197 194 195 188
275 274 271 264 258 252 247 242 238 234 229 225 221 220 221 222 220 214 211 213 216 217 218 219 223 229 231 224 220 222 221 212 201 201 209 208 199 195 194 192 187 175
269 268 266 265 261 256 250 246 245 243 240 232 224 220 221 222 219 215 215 214 215 220 219 216 217 220 221 220 222 225 222 211 200 200 205 200 192 192 193 188 179 169
263 263 263 261 258 252 248 246 244 243 242 236 226 220 220 220 217 216 218 216 217 221 220 215 215 217 219 222 225 225 218 207 198 196 196 192 190 191 187 183 175 167
256 257 259 259 254 246 243 241 238 234 234 233 228 222 220 217 213 213 215 216 219 221 220 218 216 218 221 222 221 218 209 202 198 195 191 188 186 180 176 175 168 161
255 251 253 254 250 243 240 240 237 233 231 231 230 224 220 219 218 218 217 216 220 222 220 217 214 217 220 219 216 211 201 195 196 192 187 180 172 168 165 162 159 157
259 250 246 246 243 240 240 238 235 233 230 228 227 226 223 220 220 223 221 219 221 223 221 216 210 214 218 215 211 206 196 191 189 183 175 164 156 154 153 151 153 157
263 253 245 241 237 236 237 235 231 228 225 223 223 223 221 217 218 223 223 221 222 223 222 216 208 211 215 211 207 202 194 188 181 170 161 154 149 144 142 142 145 148
263 257 248 239 231 228 231 231 228 225 225 225 221 216 214 215 218 221 220 219 220 220 218 214 209 211 211 206 202 197 189 183 174 162 155 151 147 142 136 134 137 143